#timestamp,LO_Frequency,Hit,StdDev 
1657044015.4,286046999.5,N
1657044035.2,286046997.0,N
1657044055.1,286046996.7,N
1657044056.0,286046996.7,N
1657044075.8,286046997.1,N
1657044095.7,286046996.8,N
1657044115.5,286046996.9,N
1657044135.3,286046996.7,N
1657044155.2,286046999.6,N
1657044175.0,286046996.7,N
1657044175.9,286046996.7,N
1657044195.8,286046999.6,N
1657044215.6,286046999.4,N
1657044235.4,286046999.1,N
1657044255.3,286046998.8,N
1657044275.1,286046999.5,N
1657044295.8,286046999.4,N
1657044315.7,286046998.8,N
1657044335.5,286046998.6,N
1657044355.4,286047000.8,N
1657044375.2,286046998.5,N
1657044395.0,286047000.9,N
1657044395.9,286047000.9,N
1657044415.8,286047000.5,N
1657044435.6,286046999.9,N
1657044455.5,286047000.1,N
1657044475.3,286047000.1,N
1657044495.1,286047000.1,N
1657044515.9,286047000.2,N
1657044535.7,286047000.6,N
1657044555.5,286047000.9,N
1657044575.4,286047001.2,N
1657044595.2,286047000.4,N
1657044615.1,286047000.4,N
1657044616.0,286047000.4,N
1657044635.8,286047001.1,N
1657044655.6,286047000.4,N
1657044675.5,286046998.2,N
1657044695.3,286047000.6,N
1657044715.2,286047000.7,N
1657044735.9,286046998.9,N
1657044755.7,286046998.2,N
1657044775.6,286047000.8,N
1657044795.4,286046998.2,N
1657044815.3,286047000.9,N
1657044835.1,286046998.8,N
1657044836.0,286046998.8,N
1657044855.8,286046999.0,N
1657044875.7,286046999.3,N
1657044895.5,286046999.4,N
1657044915.3,286046999.5,N
1657044935.2,286046998.8,N
1657044955.0,286046998.8,N
1657044955.9,286046998.8,N
1657044975.8,286046999.5,N
1657044995.6,286046998.1,N
1657045015.4,286046999.2,N
1657045035.3,286046996.7,Y
1657045055.1,286046998.2,P
1657045075.9,286046998.9,N
1657045095.7,286046998.8,N
1657045115.5,286046999.1,N
1657045135.4,286046998.2,Y
1657045155.2,286046999.9,P
1657045175.1,286047000.4,N
1657045176.0,286047000.4,N
1657045195.8,286047000.9,N
1657045215.6,286046999.8,N
1657045235.5,286047001.2,N
1657045255.3,286046998.4,N
1657045275.1,286047000.8,N
1657045295.9,286047001.0,N
1657045315.7,286047001.1,N
1657045335.6,286047000.9,N
1657045355.4,286046998.3,N
1657045375.2,286046999.3,N
1657045395.1,286046998.3,N
1657045396.0,286046998.3,N
1657045415.8,286046999.0,N
1657045435.6,286046999.1,N
1657045455.5,286046999.4,N
1657045475.3,286047001.2,N
1657045495.2,286046998.6,N
1657045515.9,286046998.4,N
1657045535.7,286046998.7,N
1657045555.6,286046998.3,N
1657045575.4,286046998.9,N
1657045595.2,286047001.2,N
1657045615.1,286047000.5,N
1657045616.0,286047000.5,N
1657045635.8,286047000.7,N
1657045655.7,286046998.6,N
1657045675.5,286046998.4,N
1657045695.3,286046998.7,N
1657045715.2,286046998.2,N
1657045735.0,286046998.6,N
1657045735.9,286046998.6,N
1657045755.7,286047000.4,N
1657045775.6,286047001.0,N
1657045795.4,286046998.5,N
1657045815.3,286046998.1,N
1657045835.1,286046998.7,N
1657045855.8,286046998.4,N
1657045875.7,286047000.6,N
1657045895.5,286047000.1,N
1657045915.4,286046998.2,N
1657045935.2,286046998.8,N
1657045955.0,286046998.8,N
1657045955.9,286046998.8,N
1657045975.8,286046998.3,N
1657045995.6,286046998.6,N
1657046015.5,286046999.0,N
1657046035.3,286046999.5,N
1657046055.1,286046998.9,N
1657046075.9,286046999.0,N
1657046095.7,286046999.6,N
1657046115.5,286046999.6,N
1657046135.4,286046998.4,N
1657046155.2,286046998.4,N
1657046175.1,286046998.9,N
1657046176.0,286046998.9,N
1657046195.8,286046998.9,N
1657046215.6,286046999.0,N
1657046235.5,286046998.9,N
1657046255.3,286046999.6,N
1657046275.2,286046999.3,N
1657046295.9,286046998.5,N
1657046315.7,286046998.7,N
1657046335.6,286046998.7,N
1657046355.4,286046998.4,N
1657046375.2,286046998.2,Y
1657046395.1,286047001.0,P
1657046396.0,286047001.0,N
1657046415.8,286047000.6,N
1657046435.7,286047001.1,N
1657046455.5,286047000.4,N
1657046475.3,286046998.6,N
1657046495.2,286047000.6,N
1657046515.0,286047000.8,N
1657046515.9,286047000.8,N
1657046535.8,286046998.5,N
1657046555.6,286046998.7,N
1657046575.4,286046998.1,N
1657046595.3,286046999.4,N
1657046615.1,286047001.0,N
1657046635.8,286047000.2,N
1657046655.7,286047006.9,Y
1657046675.5,286047009.1,P
1657046695.4,286047008.3,N
1657046715.2,286047005.0,N
1657046735.0,286047004.3,N
1657046735.9,286047004.3,N
1657046755.8,286047001.4,N
1657046775.6,286047004.0,N
1657046795.4,286047003.7,N
1657046815.3,286047003.6,N
1657046835.1,286047003.5,N
1657046855.9,286047004.3,N
1657046875.7,286047011.9,Y
1657046895.5,286046998.3,P
1657046915.4,286046998.8,N
1657046935.2,286046998.4,N
1657046955.0,286046999.2,N
1657046955.9,286046999.2,N
1657046975.8,286046996.6,N
1657046995.6,286046999.3,N
1657047015.5,286046999.0,N
1657047035.3,286046999.0,N
1657047055.1,286046999.4,N
1657047075.9,286046999.1,N
1657047095.7,286046999.1,N
1657047115.5,286046999.1,N
1657047135.4,286046999.6,N
1657047155.2,286046998.9,N
1657047175.1,286046999.5,N
1657047176.0,286046999.5,N
1657047195.8,286046999.6,N
1657047215.6,286046996.6,N
1657047235.5,286046996.5,N
1657047255.3,286046997.0,N
1657047275.2,286046997.4,N
1657047295.9,286046997.0,N
1657047315.7,286046996.8,N
1657047335.6,286046997.6,N
1657047355.4,286046997.3,N
1657047375.2,286046997.9,N
1657047395.1,286046998.0,N
1657047396.0,286046998.0,N
1657047415.8,286046997.4,N
1657047435.7,286046995.3,Y
1657047455.5,286046996.7,P
1657047475.3,286046997.8,N
1657047495.2,286046996.8,P
1657047515.0,286046996.8,Y
1657047515.9,286046996.8,P
1657047535.8,286047000.7,N
1657047555.6,286046998.2,N
1657047575.4,286046998.3,N
1657047595.3,286046998.6,N
